Flight Track Log - Related Links

Times and Time Zones

All times are in EDT time to prevent confusion due to time zone crossing. See the N775NC flight status page for this flight to view local times or setup timezone preferences in your user account.

Time Position Orientation Groundspeed Altitude Reporting Facility
EDT Latitude Longitude Course Direction KTS MPH feet Rate Location/Type
09:11PM 33.6333 -84.4667 174° South 191 220 2,400  Level Atlanta TRACON
09:12PM 33.6000 -84.5500 244° Southwest 260 299 4,600 2,900 Climbing Atlanta TRACON
09:13PM 33.4826 -84.0850 163° South  Level Estimated
09:13PM 33.5833 -84.6167 253° West 255 293 8,200  Level Atlanta TRACON
09:14PM 33.4311 -83.9710 128° Southeast  Level Estimated
09:14PM 33.5214 -84.6542 207° Southwest 243 280 10,300  Level Atlanta Center
09:15PM 33.3235 -83.9574 174° South  Level FlightAware Approximate
09:15PM 33.4467 -84.5839 142° Southeast 327 376 11,600  Level Atlanta Center
09:16PM 33.2159 -83.9438 174° South  Level FlightAware Approximate
09:16PM 33.3656 -84.4914 136° Southeast 370 426 13,000  Level Atlanta Center
09:17PM 33.3053 -84.3694 121° Southeast 413 475 15,300 2,000 Climbing Atlanta Center
09:18PM 33.2703 -84.2228 106° East 427 491 17,000 1,800 Climbing Atlanta Center
09:19PM 33.2411 -84.0711 103° East 457 526 18,900 1,650 Climbing Atlanta Center
09:20PM 33.2119 -83.8997 101° East 469 540 20,300 1,300 Climbing Atlanta Center
09:21PM 33.1844 -83.7386 101° East 485 558 21,500 1,250 Climbing Atlanta Center
09:22PM 33.1381 -83.5822 109° East 490 564 22,800 750 Climbing Atlanta Center
09:23PM 33.0892 -83.4239 110° East 501 577 23,000 100 Climbing Atlanta Center
09:24PM 33.0508 -83.2806 108° East 506 582 23,000  Level Atlanta Center
09:25PM 32.9933 -83.1075 112° Southeast 506 582 23,000  Level Atlanta Center
09:26PM 32.9461 -82.9569 110° East 506 582 23,000  Level Atlanta Center
09:27PM 32.8883 -82.8069 115° Southeast 496 571 23,000  Level Atlanta Center
09:28PM 32.8283 -82.6594 116° Southeast 491 565 23,000 -850 Level Atlanta Center
09:29PM 32.7664 -82.5394 122° Southeast 484 557 21,300 -2,712 Descending Atlanta Center
09:31PM 32.6114 -82.2194 120° Southeast 440 506 13,600 -2,769 Descending Jacksonville Center
09:32PM 32.5525 -82.1114 123° Southeast 415 478 11,700 -1,300 Descending Jacksonville Center
09:33PM 32.4994 -82.0058 121° Southeast 387 445 11,000 -350 Descending Jacksonville Center
09:34PM 32.4447 -81.9128 125° Southeast 352 405 11,000 -200 Level Jacksonville Center
09:35PM 32.4064 -81.8197 116° Southeast 342 394 10,600 -800 Descending Jacksonville Center
09:36PM 32.3658 -81.7217 116° Southeast 311 358 9,400 -900 Descending Jacksonville Center
09:37PM 32.3253 -81.6364 119° Southeast 299 344 8,800 -1,350 Descending Jacksonville Center
09:38PM 32.2722 -81.5608 130° Southeast 299 344 6,700 -2,150 Descending Jacksonville Center
09:39PM 32.2214 -81.4953 132° Southeast 278 320 4,500 -1,950 Descending Jacksonville Center
09:40PM 32.1686 -81.4322 135° Southeast 271 312 2,800 -1,300 Descending Jacksonville Center
09:41PM 32.1344 -81.3789 127° Southeast 238 274 1,900 -700 Descending Jacksonville Center
09:42PM 32.1294 -81.3103 95° East 189 217 1,400 -650 Descending Jacksonville Center
09:43PM 32.1289 -81.2611 91° East 158 182 600 -800 Descending Jacksonville Center

Login

Don't have an account? Register now (free) for customized features, flight alerts, and more!